Home   Weather   Vallejo   Past weeks

Flag for USA Past Weather in Vallejo, California, USA — Yesterday and Last 2 Weeks

Now
51 °F

Clear.


Feels Like: 48 °F
Forecast: 44 / 56 °F
Wind: 9 mph from West

Location: Napa County Airport

Current Time: Feb 21, 2017 at 10:39:21 pm

Latest Report: Feb 21, 2017 at 9:54 pm


Visibility: 10 mi

Pressure: 30.20 "Hg

Humidity: 80%

Dew Point: 45 °F

Location of VallejoLocation

Past Weather in Vallejo — Graph

°F

Vallejo Temperature Yesterday

Maximum temperature yesterday: 60 °F (at 8:54 pm)
Minimum temperature yesterday: 54 °F (at 12:54 am)
Average temperature yesterday: 58 °F

High & Low Weather Summary for the Past Weeks

 TemperatureHumidityPressure
High69 °F (Feb 14, 2:54 pm)93% (Feb 8, 4:54 am)30.23 "Hg (Feb 8, 4:54 am)
Low40 °F (Feb 11, 6:54 am)34% (Feb 12, 2:54 pm)29.14 "Hg (Feb 17, 6:54 pm)
Average56 °F81%29.91 "Hg
* Reported Feb 6 8:54 pm — Feb 21 8:54 pm, Vallejo, Weather by CustomWeather, © 2017

Note: Actual official high and low records may vary slightly from our data, if they occured in-between our weather recording intervals... More about our weather records

Advertising

Vallejo Weather History for the Previous 24 Hours

Scroll right to see more
 ConditionsComfort  
Time TempWeatherWind HumidityBarometerVisibility
8:54 pm
Tue, Feb 21
52 °FPassing clouds.No wind80%30.19 "Hg10 mi
7:54 pm53 °FMostly cloudy.8 mph80%30.18 "Hg10 mi
6:54 pm53 °FPassing clouds.7 mph80%30.17 "Hg10 mi
5:54 pm53 °FMostly cloudy.5 mph83%30.16 "Hg10 mi
4:54 pm55 °FLight rain. More clouds than sun.6 mph77%30.15 "Hg10 mi
3:54 pm56 °FBroken clouds.7 mph75%30.15 "Hg10 mi
2:54 pm55 °FLight rain. More clouds than sun.7 mph74%30.16 "Hg10 mi
2:09 pm55 °FLight rain. Mostly cloudy.15 mph80%30.19 "Hg8 mi
1:54 pm56 °FMore clouds than sun.13 mph81%30.15 "Hg10 mi
12:54 pm55 °FLight rain. More clouds than sun.14 mph77%30.16 "Hg6 mi
11:54 am58 °FBroken clouds.8 mph72%30.18 "Hg10 mi
10:54 am61 °FScattered clouds.12 mph67%30.19 "Hg10 mi
9:54 am59 °FPassing clouds.7 mph75%30.18 "Hg10 mi
8:54 am57 °FScattered clouds.6 mph78%30.16 "Hg10 mi
7:54 am51 °FSunny.No wind86%30.15 "Hg10 mi
6:54 am52 °FPassing clouds.No wind83%30.12 "Hg10 mi
5:54 am52 °FClear.6 mph89%30.11 "Hg10 mi
4:54 am53 °FPassing clouds.9 mph89%30.09 "Hg10 mi
4:36 am54 °FMostly cloudy.9 mph90%30.11 "Hg10 mi
3:54 am54 °FLight rain. Mostly cloudy.10 mph86%30.07 "Hg10 mi
2:54 am57 °FLight rain. Overcast.22 mph78%30.04 "Hg8 mi
1:54 am56 °FPartly cloudy.16 mph81%30.04 "Hg10 mi
1:13 am57 °FOvercast.18 mph78%30.08 "Hg10 mi
12:54 am57 °FMostly cloudy.16 mph78%30.04 "Hg10 mi
12:15 am58 °FMostly cloudy.18 mph78%30.04 "Hg10 mi
11:54 pm
Mon, Feb 20
58 °FLight rain. Mostly cloudy.20 mph84%29.99 "Hg8 mi
11:40 pm58 °FRain. Fog.28 mph87%30.00 "Hg4 mi
11:01 pm60 °FLight rain. Mostly cloudy.28 mph78%29.97 "Hg8 mi
10:10 pm60 °FLight rain. Overcast.24 mph80%29.96 "Hg9 mi
Weather by CustomWeather, © 2017

See weather overviewHow to use our weather pages